When you browse on this site, cookies collect data to enhance your experience and personalize the content and advertising you see.
Visit our Privacy Policy to learn more. By continuing to use the site, you agree to this use of cookies and data.
  • In Czech Republic
  • List of Countries
  • For 7 days
  • Water Temperature
  • Weather Map
  • Weather Widgets
  • user-avatar
    Login

    Hourly Weather Baden-Baden

    Today, 19 February, Wednesday

    Time Temperature Precipitation Wind Pressure Humidity
    00:00 +2°C° 0 mm 5 mps 735 mmHg 80%
    01:00 +2°C° 0 mm 5 mps 735 mmHg 80%
    02:00 +2°C° 0.1 mm 6 mps 734 mmHg 82%
    03:00 +2°C° 0.1 mm 6 mps 733 mmHg 84%
    04:00 +2°C° 0.1 mm 7 mps 732 mmHg 87%
    05:00 +2°C° 0.6 mm 7 mps 732 mmHg 88%
    06:00 +2°C° 0.6 mm 7 mps 732 mmHg 89%
    07:00 +2°C° 0 mm 7 mps 732 mmHg 93%
    08:00 +2°C° 0.5 mm 6 mps 732 mmHg 91%
    09:00 +2°C° 0.5 mm 6 mps 732 mmHg 88%
    10:00 +2°C° 0.5 mm 5 mps 733 mmHg 86%
    11:00 +3°C° 0.4 mm 6 mps 733 mmHg 80%
    12:00 +3°C° 0.4 mm 6 mps 734 mmHg 74%
    13:00 +4°C° 0.4 mm 6 mps 735 mmHg 69%
    14:00 +4°C° 0.1 mm 6 mps 735 mmHg 69%
    15:00 +3°C° 0.1 mm 5 mps 735 mmHg 69%
    16:00 +3°C° 0.1 mm 5 mps 735 mmHg 69%
    17:00 +3°C° 0 mm 4 mps 736 mmHg 73%
    18:00 +3°C° 0 mm 3 mps 736 mmHg 76%
    19:00 +3°C° 0 mm 2 mps 736 mmHg 80%
    20:00 +2°C° 0 mm 3 mps 736 mmHg 82%
    21:00 +1°C° 0 mm 3 mps 736 mmHg 83%
    22:00 +1°C° 0 mm 3 mps 736 mmHg 84%
    23:00 +1°C° 0 mm 3 mps 736 mmHg 85%

    Tomorrow, 20 February, Thursday

    Time Temperature Precipitation Wind Pressure Humidity
    00:00 +2°C° 0 mm 3 mps 736 mmHg 85%
    01:00 +2°C° 0 mm 3 mps 735 mmHg 85%
    02:00 +2°C° 0 mm 3 mps 735 mmHg 86%
    03:00 +1°C° 0 mm 4 mps 735 mmHg 87%
    04:00 +3°C° 0 mm 4 mps 734 mmHg 87%
    05:00 +3°C° 0.1 mm 4 mps 734 mmHg 87%
    06:00 +3°C° 0.1 mm 3 mps 734 mmHg 87%
    07:00 +3°C° 0.1 mm 3 mps 734 mmHg 86%
    08:00 +3°C° 0 mm 3 mps 734 mmHg 85%
    09:00 +4°C° 0 mm 3 mps 734 mmHg 84%
    10:00 +4°C° 0 mm 4 mps 734 mmHg 83%
    11:00 +5°C° 0 mm 4 mps 733 mmHg 79%
    12:00 +6°C° 0 mm 4 mps 733 mmHg 75%
    13:00 +7°C° 0 mm 5 mps 733 mmHg 71%
    14:00 +7°C° 0 mm 4 mps 732 mmHg 72%
    15:00 +7°C° 0 mm 4 mps 732 mmHg 73%
    16:00 +7°C° 0 mm 4 mps 732 mmHg 74%
    17:00 +6°C° 0 mm 4 mps 732 mmHg 75%
    18:00 +6°C° 0 mm 4 mps 732 mmHg 76%
    19:00 +6°C° 0 mm 4 mps 732 mmHg 77%
    20:00 +6°C° 0 mm 5 mps 732 mmHg 77%
    21:00 +6°C° 0 mm 5 mps 732 mmHg 77%
    22:00 +5°C° 0 mm 6 mps 733 mmHg 77%
    23:00 +5°C° 0.3 mm 6 mps 733 mmHg 79%

    Day after tomorrow, 21 February, Friday

    Time Temperature Precipitation Wind Pressure Humidity
    00:00 +4°C° 0.3 mm 6 mps 734 mmHg 81%
    01:00 +5°C° 0.3 mm 5 mps 735 mmHg 84%
    02:00 +3°C° 0.2 mm 5 mps 735 mmHg 84%
    03:00 +3°C° 0.2 mm 4 mps 736 mmHg 85%
    04:00 +2°C° 0.2 mm 3 mps 737 mmHg 85%
    05:00 +2°C° 0 mm 3 mps 737 mmHg 86%
    06:00 +2°C° 0 mm 2 mps 738 mmHg 88%
    07:00 +1°C° 0 mm 2 mps 738 mmHg 89%
    14:00 +6°C° 0 mm 2 mps 740 mmHg 56%
    15:00 +6°C° 0 mm 2 mps 740 mmHg 56%
    16:00 +6°C° 0 mm 2 mps 740 mmHg 56%
    17:00 +5°C° 0 mm 2 mps 740 mmHg 61%
    18:00 +5°C° 0 mm 1 mps 740 mmHg 66%
    19:00 +4°C° 0 mm 1 mps 740 mmHg 70%
    20:00 +4°C° 0 mm 1 mps 740 mmHg 70%
    21:00 +4°C° 0 mm 1 mps 740 mmHg 70%
    22:00 +4°C° 0 mm 1 mps 740 mmHg 70%
    23:00 +3°C° 0 mm 1 mps 740 mmHg 71%

    22 February, Saturday

    Time Temperature Precipitation Wind Pressure Humidity
    00:00 +3°C° 0 mm 1 mps 740 mmHg 73%
    01:00 +1°C° 0 mm 2 mps 740 mmHg 74%
    02:00 +1°C° 0 mm 2 mps 739 mmHg 75%
    03:00 +1°C° 0 mm 2 mps 739 mmHg 75%
    04:00 +1°C° 0 mm 2 mps 739 mmHg 76%
    05:00 +1°C° 0 mm 2 mps 739 mmHg 76%
    06:00 +1°C° 0 mm 2 mps 739 mmHg 76%
    07:00 +1°C° 0 mm 2 mps 739 mmHg 76%
    08:00 +2°C° 0 mm 2 mps 739 mmHg 70%
    09:00 +3°C° 0 mm 3 mps 739 mmHg 65%
    10:00 +4°C° 0 mm 3 mps 739 mmHg 60%
    11:00 +5°C° 0 mm 3 mps 739 mmHg 56%
    12:00 +7°C° 0 mm 4 mps 739 mmHg 52%
    13:00 +8°C° 0 mm 4 mps 739 mmHg 48%
    14:00 +8°C° 0 mm 4 mps 738 mmHg 49%
    15:00 +8°C° 0 mm 4 mps 738 mmHg 50%
    16:00 +10°C° 0 mm 4 mps 738 mmHg 51%
    17:00 +8°C° 0 mm 4 mps 738 mmHg 54%
    18:00 +6°C° 0 mm 4 mps 738 mmHg 57%
    19:00 +5°C° 0 mm 4 mps 738 mmHg 61%
    20:00 +5°C° 0 mm 4 mps 738 mmHg 61%
    21:00 +5°C° 0 mm 4 mps 738 mmHg 61%
    22:00 +5°C° 0 mm 4 mps 739 mmHg 61%
    23:00 +5°C° 0 mm 4 mps 739 mmHg 61%

    23 February, Sunday

    Time Temperature Precipitation Wind Pressure Humidity
    00:00 +5°C° 0 mm 4 mps 739 mmHg 61%
    01:00 +6°C° 0 mm 4 mps 739 mmHg 60%
    02:00 +6°C° 0 mm 4 mps 739 mmHg 62%
    03:00 +5°C° 0 mm 4 mps 738 mmHg 64%
    04:00 +5°C° 0 mm 4 mps 738 mmHg 65%
    05:00 +5°C° 0 mm 4 mps 738 mmHg 66%
    06:00 +5°C° 0 mm 4 mps 738 mmHg 67%
    07:00 +5°C° 0 mm 3 mps 737 mmHg 67%
    08:00 +6°C° 0 mm 4 mps 737 mmHg 66%
    09:00 +6°C° 0 mm 4 mps 737 mmHg 65%
    10:00 +6°C° 0 mm 4 mps 736 mmHg 64%
    11:00 +7°C° 0 mm 5 mps 736 mmHg 63%
    12:00 +9°C° 0 mm 5 mps 735 mmHg 62%
    13:00 +10°C° 0 mm 6 mps 735 mmHg 61%
    14:00 +11°C° 0 mm 6 mps 734 mmHg 56%
    15:00 +11°C° 0 mm 6 mps 734 mmHg 52%
    16:00 +11°C° 0 mm 7 mps 733 mmHg 48%
    17:00 +11°C° 0 mm 7 mps 733 mmHg 50%
    18:00 +10°C° 0 mm 7 mps 733 mmHg 52%
    19:00 +9°C° 0 mm 7 mps 733 mmHg 54%
    20:00 +9°C° 0 mm 8 mps 733 mmHg 59%
    21:00 +9°C° 0 mm 8 mps 733 mmHg 65%
    22:00 +9°C° 0 mm 8 mps 734 mmHg 70%
    23:00 +7°C° 0.5 mm 8 mps 735 mmHg 72%

    24 February, Monday

    Time Temperature Precipitation Wind Pressure Humidity
    00:00 +6°C° 0.5 mm 7 mps 736 mmHg 74%
    01:00 +5°C° 0.5 mm 6 mps 738 mmHg 77%
    02:00 +3°C° 0 mm 5 mps 739 mmHg 78%
    03:00 +3°C° 0 mm 3 mps 739 mmHg 79%
    04:00 +3°C° 0 mm 2 mps 740 mmHg 80%
    05:00 +3°C° 0 mm 1 mps 741 mmHg 82%
    06:00 +3°C° 0 mm 1 mps 741 mmHg 83%
    07:00 +2°C° 0 mm 1 mps 742 mmHg 84%
    08:00 +2°C° 0 mm 0 mps 742 mmHg 77%
    09:00 +4°C° 0 mm 0 mps 742 mmHg 70%
    10:00 +5°C° 0 mm 0 mps 742 mmHg 63%
    11:00 +6°C° 0 mm 0 mps 741 mmHg 58%
    12:00 +8°C° 0 mm 1 mps 741 mmHg 53%
    13:00 +9°C° 0 mm 1 mps 740 mmHg 49%
    14:00 +9°C° 0 mm 1 mps 739 mmHg 50%
    15:00 +9°C° 0 mm 1 mps 738 mmHg 51%
    16:00 +9°C° 0 mm 1 mps 738 mmHg 52%
    17:00 +8°C° 0 mm 1 mps 737 mmHg 59%
    18:00 +7°C° 0 mm 1 mps 736 mmHg 66%
    19:00 +6°C° 0 mm 1 mps 736 mmHg 73%
    20:00 +4°C° 0 mm 2 mps 736 mmHg 76%
    21:00 +4°C° 0 mm 2 mps 735 mmHg 79%
    22:00 +4°C° 0 mm 2 mps 735 mmHg 82%
    23:00 +5°C° 0 mm 2 mps 735 mmHg 83%
    Show more